User: anonymous   Login
Location: L�tisburg
(47.3947°N, 9.0820°E)
Time: 15:34:46
(UTC+00:00)
Language:

Abrixas rocket - Orbit

View from above orbital plane
View from above orbital plane
View from above satellite
View from above satellite

Ground track
Ground track

The orbit data is extracted from the following two-line orbital elements,

1 25723U 99022C   21113.32388316  .12614863  12289-4  98116-4 0  9999
2 25723  48.3924  71.3057 0003192 305.2556  55.2408 16.52289309227173
Epoch (UTC): 23 April 2021 07:46:23
Eccentricity: 0.0003192
inclination: 48.3924°
perigee height: 131 km
apogee height: 135 km
right ascension of ascending node: 71.3057°
argument of perigee: 305.2556°
revolutions per day: 16.52289309
mean anomaly at epoch: 55.2408°
orbit number at epoch: 22717

The dashed part of the orbit path shows where the satellite is in the earth's shadow,  

DLR